Location: Ciserano
(45.5833°N, 9.6000°E)
Time: 10:09:01
(UTC+00:00)

H-2A R/B - Pass Details

Date: 29 November 2020
Orbit: 529 x 651 km, 98.3° (Epoch: 25 January)

Event Time Altitude Azimuth Distance (km) Brightness Sun altitude
Rises 04:57:01 0° 21° (NNE) 2,703 6.0 -17.4°
Reaches altitude 10° 04:59:17 10° 30° (NNE) 1,796 5.1 -17.0°
Maximum altitude 05:02:51 36° 98° (E) 856 3.9 -16.4°
Drops below altitude 10° 05:06:23 10° 167° (SSE) 1,772 5.3 -15.8°
Sets 05:08:36 0° 176° (S) 2,660 6.1 -15.4°
